Location: Westminster
(33.3626°N, 96.4619°W)
Time: 20:08:11
(UTC+00:00)

Cosmos 1408 Rocket - Pass Details

Date: 03 December 2021
Orbit: 601 x 630 km, 82.6° (Epoch: 26 January)

Event Time Altitude Azimuth Distance (km) Brightness Sun altitude
Rises 12:00:02 0° 180° (S) 2,844 7.2 -15.1°
Reaches altitude 10° 12:02:15 10° 178° (S) 1,942 6.4 -14.7°
Maximum altitude 12:06:31 70° 95° (E) 641 3.8 -13.8°
Drops below altitude 10° 12:10:48 10° 11° (NNE) 1,949 6.0 -13.0°
Sets 12:13:01 0° 10° (N) 2,856 6.9 -12.5°
